{"data":{"norad_id":57432,"epoch":"2026-08-17T15:52:10.348032Z","epoch_age_seconds":3051665,"freshness":"OLD","line1":"1 57432U 23105C   26229.66123088  .12351474  91234-5  28384-2 0  9995","line2":"2 57432  42.9932  56.2878 0008117 289.5267  70.4745 16.28880631170338","mean_motion":16.28880631,"eccentricity":0.0008117,"inclination_deg":42.9932,"raan_deg":56.2878,"arg_perigee_deg":289.5267,"mean_anomaly_deg":70.4745,"bstar":0.0028384,"rev_number":17033,"period_min":88.404268096426,"perigee_km":190.21383858971,"apogee_km":200.88556157863,"semimajor_km":6573.6867000842,"source":"CELESTRAK","updated_at":"2026-08-18T09:01:17.756961Z"}}